Time,TemperatureF,DewpointF,PressureIn,WindDirection,WindDirectionDegrees,WindSpeedMPH,WindSpeedGustMPH,Humidity,HourlyPrecipIn,Conditions,Clouds,dailyrainin,SoftwareType,DateUTC
2014-01-25 00:04:00,8.1,-2.0,29.88,SSW,193,0.0,8.0,64,0.00,,,0.00,weatherlink.com 1.10,2014-01-25 05:04:00,
2014-01-25 00:19:00,8.1,-2.0,29.86,SE,129,0.0,9.0,64,0.00,,,0.00,weatherlink.com 1.10,2014-01-25 05:19:00,
2014-01-25 00:34:00,8.2,-1.0,29.85,South,184,3.0,8.0,65,0.00,,,0.00,weatherlink.com 1.10,2014-01-25 05:34:00,
2014-01-25 00:49:00,8.3,-1.0,29.84,South,188,4.0,10.0,65,0.00,,,0.00,weatherlink.com 1.10,2014-01-25 05:49:00,
2014-01-25 01:04:00,8.3,-2.0,29.83,SW,216,3.0,12.0,64,0.00,,,0.00,weatherlink.com 1.10,2014-01-25 06:04:00,
2014-01-25 01:20:00,8.4,-1.0,29.82,SSW,205,4.0,11.0,65,0.00,,,0.00,weatherlink.com 1.10,2014-01-25 06:20:00,
2014-01-25 01:35:00,8.4,-1.0,29.82,SW,219,7.0,12.0,65,0.00,,,0.00,weatherlink.com 1.10,2014-01-25 06:35:00,
2014-01-25 01:50:00,8.6,-1.0,29.81,South,173,1.0,9.0,65,0.00,,,0.00,weatherlink.com 1.10,2014-01-25 06:50:00,
2014-01-25 02:05:00,8.5,-1.0,29.81,SSW,199,7.0,10.0,65,0.00,,,0.00,weatherlink.com 1.10,2014-01-25 07:05:00,
2014-01-25 02:20:00,8.6,-1.0,29.80,SSE,168,1.0,8.0,65,0.00,,,0.00,weatherlink.com 1.10,2014-01-25 07:20:00,
2014-01-25 02:35:00,8.6,-1.0,29.78,ESE,111,1.0,11.0,66,0.00,,,0.00,weatherlink.com 1.10,2014-01-25 07:35:00,
2014-01-25 02:50:00,8.9,-1.0,29.77,SSE,167,0.0,10.0,65,0.00,,,0.00,weatherlink.com 1.10,2014-01-25 07:50:00,
2014-01-25 03:05:00,9.2,-1.0,29.77,SE,140,2.0,14.0,64,0.00,,,0.00,weatherlink.com 1.10,2014-01-25 08:05:00,
2014-01-25 03:20:00,9.5,-1.0,29.76,SSE,161,1.0,8.0,63,0.00,,,0.00,weatherlink.com 1.10,2014-01-25 08:20:00,
2014-01-25 03:35:00,9.5,-1.0,29.75,SSW,204,5.0,11.0,64,0.00,,,0.00,weatherlink.com 1.10,2014-01-25 08:35:00,
2014-01-25 03:50:00,9.4,0.0,29.73,SSE,160,2.0,11.0,65,0.00,,,0.00,weatherlink.com 1.10,2014-01-25 08:50:00,
2014-01-25 04:05:00,9.5,-1.0,29.73,WSW,244,5.0,13.0,64,0.00,,,0.00,weatherlink.com 1.10,2014-01-25 09:05:00,
2014-01-25 04:20:00,9.6,0.0,29.72,SW,222,5.0,12.0,65,0.00,,,0.00,weatherlink.com 1.10,2014-01-25 09:20:00,
2014-01-25 04:35:00,9.8,0.0,29.71,SSW,196,1.0,17.0,64,0.00,,,0.00,weatherlink.com 1.10,2014-01-25 09:35:00,
2014-01-25 04:51:00,9.9,0.0,29.70,WSW,258,2.0,9.0,64,0.00,,,0.00,weatherlink.com 1.10,2014-01-25 09:51:00,
2014-01-25 05:06:00,9.9,0.0,29.70,SSW,196,4.0,8.0,65,0.00,,,0.00,weatherlink.com 1.10,2014-01-25 10:06:00,
2014-01-25 05:21:00,10.0,0.0,29.69,SSE,167,2.0,14.0,65,0.00,,,0.00,weatherlink.com 1.10,2014-01-25 10:21:00,
2014-01-25 05:36:00,10.1,0.0,29.68,South,182,3.0,9.0,65,0.00,,,0.00,weatherlink.com 1.10,2014-01-25 10:36:00,
2014-01-25 05:51:00,10.2,0.0,29.68,South,187,4.0,9.0,64,0.00,,,0.00,weatherlink.com 1.10,2014-01-25 10:51:00,
2014-01-25 06:06:00,10.3,1.0,29.67,South,184,1.0,8.0,65,0.00,,,0.00,weatherlink.com 1.10,2014-01-25 11:06:00,
2014-01-25 06:21:00,10.5,1.0,29.67,SW,215,3.0,10.0,66,0.00,,,0.00,weatherlink.com 1.10,2014-01-25 11:21:00,
2014-01-25 06:36:00,10.6,1.0,29.67,SSE,150,0.0,10.0,64,0.00,,,0.00,weatherlink.com 1.10,2014-01-25 11:36:00,
2014-01-25 06:51:00,10.7,1.0,29.66,SSE,162,3.0,15.0,64,0.00,,,0.00,weatherlink.com 1.10,2014-01-25 11:51:00,
2014-01-25 07:06:00,10.8,0.0,29.65,SSE,153,3.0,11.0,63,0.00,,,0.00,weatherlink.com 1.10,2014-01-25 12:06:00,
2014-01-25 07:21:00,11.0,1.0,29.64,SSW,196,2.0,8.0,64,0.00,,,0.00,weatherlink.com 1.10,2014-01-25 12:21:00,
2014-01-25 07:36:00,11.2,1.0,29.63,South,183,4.0,13.0,63,0.00,,,0.00,weatherlink.com 1.10,2014-01-25 12:36:00,
2014-01-25 07:51:00,11.4,1.0,29.63,SSW,195,2.0,8.0,63,0.00,,,0.00,weatherlink.com 1.10,2014-01-25 12:51:00,
2014-01-25 08:06:00,11.5,1.0,29.62,SSE,160,0.0,8.0,63,0.00,,,0.00,weatherlink.com 1.10,2014-01-25 13:06:00,
2014-01-25 08:22:00,11.7,1.0,29.62,SW,227,0.0,15.0,63,0.00,,,0.00,weatherlink.com 1.10,2014-01-25 13:22:00,
2014-01-25 08:37:00,11.9,2.0,29.61,South,170,2.0,14.0,64,0.00,,,0.00,weatherlink.com 1.10,2014-01-25 13:37:00,
2014-01-25 08:52:00,12.1,2.0,29.61,SSW,194,2.0,17.0,65,0.00,,,0.00,weatherlink.com 1.10,2014-01-25 13:52:00,
2014-01-25 09:07:00,12.2,4.0,29.60,SW,215,7.0,13.0,68,0.00,,,0.00,weatherlink.com 1.10,2014-01-25 14:07:00,
2014-01-25 09:22:00,12.3,5.0,29.59,SSW,196,3.0,13.0,72,0.00,,,0.00,weatherlink.com 1.10,2014-01-25 14:22:00,
2014-01-25 09:37:00,12.1,7.0,29.59,SW,223,10.0,23.0,78,0.00,,,0.00,weatherlink.com 1.10,2014-01-25 14:37:00,
2014-01-25 09:52:00,12.1,7.0,29.60,SW,230,4.0,14.0,81,0.00,,,0.00,weatherlink.com 1.10,2014-01-25 14:52:00,
2014-01-25 10:07:00,12.2,8.0,29.59,SW,224,2.0,10.0,83,0.00,,,0.00,weatherlink.com 1.10,2014-01-25 15:07:00,
2014-01-25 10:22:00,12.5,9.0,29.59,SSW,205,3.0,12.0,84,0.00,,,0.00,weatherlink.com 1.10,2014-01-25 15:22:00,
2014-01-25 10:37:00,12.6,9.0,29.57,SSW,198,1.0,18.0,85,0.00,,,0.00,weatherlink.com 1.10,2014-01-25 15:37:00,
2014-01-25 10:52:00,12.9,10.0,29.56,SW,229,3.0,18.0,86,0.00,,,0.00,weatherlink.com 1.10,2014-01-25 15:52:00,
2014-01-25 11:07:00,13.4,10.0,29.55,SE,142,6.0,12.0,86,0.00,,,0.00,weatherlink.com 1.10,2014-01-25 16:07:00,
2014-01-25 11:22:00,13.7,10.0,29.54,South,186,12.0,17.0,86,0.00,,,0.00,weatherlink.com 1.10,2014-01-25 16:22:00,
2014-01-25 11:38:00,14.0,11.0,29.52,South,187,1.0,11.0,86,0.00,,,0.00,weatherlink.com 1.10,2014-01-25 16:38:00,
2014-01-25 11:53:00,14.3,11.0,29.51,ESE,118,2.0,13.0,86,0.00,,,0.00,weatherlink.com 1.10,2014-01-25 16:53:00,
2014-01-25 12:08:00,14.6,11.0,29.50,SSE,158,1.0,13.0,87,0.00,,,0.00,weatherlink.com 1.10,2014-01-25 17:08:00,
2014-01-25 12:23:00,14.9,12.0,29.48,South,187,5.0,7.0,87,0.00,,,0.00,weatherlink.com 1.10,2014-01-25 17:23:00,
2014-01-25 12:38:00,15.2,12.0,29.47,SSW,192,4.0,11.0,87,0.00,,,0.00,weatherlink.com 1.10,2014-01-25 17:38:00,
2014-01-25 12:53:00,15.7,13.0,29.47,SW,221,5.0,12.0,88,0.00,,,0.00,weatherlink.com 1.10,2014-01-25 17:53:00,
2014-01-25 13:08:00,15.9,13.0,29.45,SSW,198,7.0,10.0,88,0.00,,,0.00,weatherlink.com 1.10,2014-01-25 18:08:00,
2014-01-25 13:23:00,16.4,14.0,29.44,South,189,7.0,9.0,88,0.00,,,0.00,weatherlink.com 1.10,2014-01-25 18:23:00,
2014-01-25 13:38:00,16.6,14.0,29.43,South,188,5.0,7.0,88,0.00,,,0.00,weatherlink.com 1.10,2014-01-25 18:38:00,
2014-01-25 13:53:00,16.8,14.0,29.41,South,189,8.0,12.0,88,0.00,,,0.00,weatherlink.com 1.10,2014-01-25 18:53:00,
2014-01-25 14:08:00,17.0,14.0,29.41,SW,219,1.0,9.0,89,0.00,,,0.00,weatherlink.com 1.10,2014-01-25 19:08:00,
2014-01-25 14:23:00,17.3,15.0,29.41,South,190,0.0,8.0,89,0.00,,,0.00,weatherlink.com 1.10,2014-01-25 19:23:00,
2014-01-25 14:38:00,17.6,15.0,29.40,South,174,2.0,7.0,89,0.00,,,0.00,weatherlink.com 1.10,2014-01-25 19:38:00,
2014-01-25 14:53:00,17.7,15.0,29.39,South,169,2.0,8.0,89,0.00,,,0.00,weatherlink.com 1.10,2014-01-25 19:53:00,
2014-01-25 15:09:00,17.6,15.0,29.39,SSW,194,1.0,10.0,89,0.00,,,0.00,weatherlink.com 1.10,2014-01-25 20:09:00,
2014-01-25 15:24:00,17.8,15.0,29.39,South,187,4.0,9.0,88,0.00,,,0.00,weatherlink.com 1.10,2014-01-25 20:24:00,
2014-01-25 15:39:00,17.7,15.0,29.39,West,266,5.0,18.0,88,0.00,,,0.00,weatherlink.com 1.10,2014-01-25 20:39:00,
2014-01-25 15:54:00,17.8,15.0,29.38,SSE,163,1.0,13.0,89,0.00,,,0.00,weatherlink.com 1.10,2014-01-25 20:54:00,
2014-01-25 16:09:00,17.8,15.0,29.37,South,190,2.0,9.0,89,0.00,,,0.00,weatherlink.com 1.10,2014-01-25 21:09:00,
2014-01-25 16:24:00,17.7,15.0,29.37,SSW,206,2.0,10.0,90,0.00,,,0.00,weatherlink.com 1.10,2014-01-25 21:24:00,
2014-01-25 16:39:00,17.9,16.0,29.36,WSW,243,5.0,7.0,90,0.00,,,0.00,weatherlink.com 1.10,2014-01-25 21:39:00,
2014-01-25 16:54:00,17.9,16.0,29.35,SSW,194,1.0,10.0,90,0.00,,,0.00,weatherlink.com 1.10,2014-01-25 21:54:00,
2014-01-25 17:09:00,17.8,16.0,29.35,SSW,198,2.0,5.0,91,0.00,,,0.00,weatherlink.com 1.10,2014-01-25 22:09:00,
2014-01-25 17:24:00,17.6,16.0,29.35,SSW,200,3.0,6.0,91,0.00,,,0.00,weatherlink.com 1.10,2014-01-25 22:24:00,
2014-01-25 17:39:00,17.5,15.0,29.35,SW,227,1.0,6.0,91,0.00,,,0.00,weatherlink.com 1.10,2014-01-25 22:39:00,
2014-01-25 17:54:00,17.5,16.0,29.34,SSW,200,1.0,6.0,92,0.00,,,0.00,weatherlink.com 1.10,2014-01-25 22:54:00,
2014-01-25 18:09:00,17.5,16.0,29.34,SSW,196,0.0,7.0,92,0.00,,,0.00,weatherlink.com 1.10,2014-01-25 23:09:00,
2014-01-25 18:24:00,17.6,16.0,29.34,SSW,207,0.0,4.0,92,0.00,,,0.00,weatherlink.com 1.10,2014-01-25 23:24:00,
2014-01-25 18:40:00,17.5,16.0,29.34,South,169,0.0,9.0,92,0.00,,,0.00,weatherlink.com 1.10,2014-01-25 23:40:00,
2014-01-25 18:55:00,17.6,16.0,29.34,SSW,200,0.0,8.0,92,0.00,,,0.00,weatherlink.com 1.10,2014-01-25 23:55:00,
2014-01-25 19:10:00,17.6,16.0,29.34,SSW,196,0.0,3.0,92,0.00,,,0.00,weatherlink.com 1.10,2014-01-26 00:10:00,
2014-01-25 19:25:00,17.5,16.0,29.34,SW,228,0.0,3.0,92,0.00,,,0.00,weatherlink.com 1.10,2014-01-26 00:25:00,
2014-01-25 19:40:00,17.5,16.0,29.33,SW,220,0.0,2.0,92,0.00,,,0.00,weatherlink.com 1.10,2014-01-26 00:40:00,
2014-01-25 19:55:00,17.4,16.0,29.33,SSW,209,0.0,3.0,92,0.00,,,0.00,weatherlink.com 1.10,2014-01-26 00:55:00,
2014-01-25 20:10:00,17.3,15.0,29.33,SSW,209,0.0,2.0,92,0.00,,,0.00,weatherlink.com 1.10,2014-01-26 01:10:00,
2014-01-25 20:25:00,17.3,15.0,29.32,SSW,209,0.0,0.0,92,0.00,,,0.00,weatherlink.com 1.10,2014-01-26 01:25:00,
2014-01-25 20:40:00,17.1,15.0,29.31,SSW,209,0.0,0.0,92,0.00,,,0.00,weatherlink.com 1.10,2014-01-26 01:40:00,
2014-01-25 20:55:00,17.0,15.0,29.30,SSW,209,0.0,1.0,93,0.00,,,0.00,weatherlink.com 1.10,2014-01-26 01:55:00,
2014-01-25 21:10:00,16.9,15.0,29.30,SSW,209,0.0,0.0,93,0.00,,,0.00,weatherlink.com 1.10,2014-01-26 02:10:00,
2014-01-25 21:25:00,16.8,15.0,29.30,SSW,209,0.0,0.0,93,0.00,,,0.00,weatherlink.com 1.10,2014-01-26 02:25:00,
2014-01-25 21:40:00,16.8,15.0,29.29,SSW,197,0.0,1.0,93,0.00,,,0.00,weatherlink.com 1.10,2014-01-26 02:40:00,
2014-01-25 21:55:00,16.7,15.0,29.29,SSW,197,0.0,0.0,92,0.00,,,0.00,weatherlink.com 1.10,2014-01-26 02:55:00,
2014-01-25 22:11:00,16.7,15.0,29.29,SSW,197,0.0,1.0,93,0.00,,,0.00,weatherlink.com 1.10,2014-01-26 03:11:00,
2014-01-25 22:26:00,16.7,15.0,29.29,SSW,212,0.0,4.0,92,0.00,,,0.00,weatherlink.com 1.10,2014-01-26 03:26:00,
2014-01-25 22:41:00,16.9,15.0,29.29,WSW,240,0.0,2.0,91,0.00,,,0.00,weatherlink.com 1.10,2014-01-26 03:41:00,
2014-01-25 22:56:00,16.9,15.0,29.28,WSW,240,0.0,2.0,91,0.00,,,0.00,weatherlink.com 1.10,2014-01-26 03:56:00,
2014-01-25 23:11:00,16.9,15.0,29.27,WSW,252,5.0,6.0,90,0.00,,,0.00,weatherlink.com 1.10,2014-01-26 04:11:00,
2014-01-25 23:26:00,16.8,14.0,29.27,WSW,254,6.0,9.0,89,0.00,,,0.00,weatherlink.com 1.10,2014-01-26 04:26:00,
2014-01-25 23:41:00,16.8,14.0,29.27,WSW,249,6.0,8.0,90,0.00,,,0.00,weatherlink.com 1.10,2014-01-26 04:41:00,
2014-01-25 23:56:00,16.4,14.0,29.27,West,277,4.0,8.0,89,0.00,,,0.00,weatherlink.com 1.10,2014-01-26 04:56:00,